KF0EZB Weather Reports


Display with metric or nautical units.
time (UTC)temp
F
wind
direction
speed
MPH
gust
MPH
rain 1hr
in
rain 24hr
in
rain mn
in
humidity
%
barometer
mb
20260903224500 104 188 1.0 6.0 0.00 0.00 0.00 27 1008.0
20260903223956 104 174 0.0 10.0 0.00 0.00 0.00 28 1008.2
20260903223455 104 188 5.0 8.0 0.00 0.00 0.00 28 1007.9
20260903222954 103 241 4.0 8.0 0.00 0.00 0.00 28 1008.0
20260903222449 103 86 3.0 8.0 0.00 0.00 0.00 29 1008.0
20260903221949 104 140 3.0 7.0 0.00 0.00 0.00 28 1008.6
20260903221444 104 185 3.0 5.0 0.00 0.00 0.00 28 1008.1
20260903220941 104 213 4.0 9.0 0.00 0.00 0.00 28 1008.3
20260903220441 104 252 2.0 7.0 0.00 0.00 0.00 29 1008.5
20260903214724 104 226 3.0 7.0 0.00 0.00 0.00 28 1008.8
20260903214220 104 226 3.0 7.0 0.00 0.00 0.00 28 1008.8
20260903213714 104 281 4.0 8.0 0.00 0.00 0.00 29 1008.6
20260903213211 105 178 5.0 8.0 0.00 0.00 0.00 29 1008.5
20260903212706 104 44 2.0 7.0 0.00 0.00 0.00 29 1008.5
20260903212202 104 255 5.0 7.0 0.00 0.00 0.00 29 1008.6
20260903211655 105 266 3.0 6.0 0.00 0.00 0.00 28 1008.9
20260903211153 104 185 3.0 8.0 0.00 0.00 0.00 28 1008.9
20260903210648 104 150 4.0 14.0 0.00 0.00 0.00 29 1009.0
20260903210143 104 251 4.0 11.0 0.00 0.00 0.00 29 1009.1
20260903205619 104 204 1.0 8.0 0.00 0.00 0.00 30 1009.0
20260903205119 104 204 1.0 8.0 0.00 0.00 0.00 30 1009.0
20260903204615 104 150 2.0 11.0 0.00 0.00 0.00 29 1009.1
20260903204110 104 184 3.0 6.0 0.00 0.00 0.00 29 1009.0
20260903203606 105 180 1.0 7.0 0.00 0.00 0.00 29 1009.1
20260903203100 104 185 1.0 9.0 0.00 0.00 0.00 30 1009.1
20260903202556 104 76 1.0 8.0 0.00 0.00 0.00 30 1009.4
20260903202051 104 140 5.0 10.0 0.00 0.00 0.00 30 1009.2
20260903201545 104 140 5.0 10.0 0.00 0.00 0.00 30 1009.2
20260903201044 104 192 3.0 10.0 0.00 0.00 0.00 30 1009.2
20260903200539 103 275 6.0 8.0 0.00 0.00 0.00 30 1009.4
20260903200034 103 218 0.0 2.0 0.00 0.00 0.00 30 1009.4
20260903195531 103 219 3.0 9.0 0.00 0.00 0.00 30 1009.5
20260903195026 104 281 0.0 0.0 0.00 0.00 0.00 31 1009.4
20260903194521 103 168 5.0 7.0 0.00 0.00 0.00 31 1009.7
20260903194016 104 246 4.0 13.0 0.00 0.00 0.00 31 1009.7
20260903193513 103 306 4.0 7.0 0.00 0.00 0.00 31 1009.5
20260903193008 103 52 1.0 10.0 0.00 0.00 0.00 31 1009.7
20260903192505 103 250 2.0 6.0 0.00 0.00 0.00 32 1009.7
20260903191959 103 192 0.0 3.0 0.00 0.00 0.00 32 1009.8
20260903191455 101 208 1.0 7.0 0.00 0.00 0.00 33 1009.9
20260903190954 102 191 3.0 8.0 0.00 0.00 0.00 33 1010.0
20260903190448 102 265 4.0 9.0 0.00 0.00 0.00 33 1009.9
20260903183557 100 245 4.0 9.0 0.00 0.00 0.00 34 1010.6
20260903183052 100 245 4.0 9.0 0.00 0.00 0.00 34 1010.6
20260903182550 100 195 4.0 9.0 0.00 0.00 0.00 33 1010.4
20260903182048 102 160 7.0 13.0 0.00 0.00 0.00 33 1010.6
20260903181545 100 287 2.0 5.0 0.00 0.00 0.00 33 1010.5
20260903181040 100 180 3.0 7.0 0.00 0.00 0.00 34 1010.5
20260903180535 100 183 5.0 10.0 0.00 0.00 0.00 36 1010.7
20260903180035 100 36 6.0 15.0 0.00 0.00 0.00 36 1010.7
20260903175534 99 139 4.0 8.0 0.00 0.00 0.00 37 1010.5
20260903175033 99 227 2.0 7.0 0.00 0.00 0.00 36 1010.5
20260903174528 99 192 5.0 10.0 0.00 0.00 0.00 36 1010.9
20260903174024 98 143 5.0 10.0 0.00 0.00 0.00 37 1010.9
20260903173518 98 221 4.0 9.0 0.00 0.00 0.00 37 1011.0
20260903173015 98 113 6.0 9.0 0.00 0.00 0.00 38 1011.0
20260903172515 98 177 9.0 13.0 0.00 0.00 0.00 38 1011.0
20260903172011 98 140 9.0 14.0 0.00 0.00 0.00 38 1010.9
20260903171506 98 252 3.0 6.0 0.00 0.00 0.00 39 1011.0
20260903171001 98 228 3.0 8.0 0.00 0.00 0.00 39 1010.9
20260903170500 96 180 1.0 8.0 0.00 0.00 0.00 40 1011.2
20260903165955 97 146 3.0 7.0 0.00 0.00 0.00 39 1011.2
20260903165453 95 188 5.0 9.0 0.00 0.00 0.00 41 1011.1
20260903164949 95 204 6.0 9.0 0.00 0.00 0.00 42 1011.3
20260903164444 95 208 4.0 11.0 0.00 0.00 0.00 42 1011.1
20260903163943 94 250 3.0 14.0 0.00 0.00 0.00 43 1011.3
20260903163439 94 248 5.0 8.0 0.00 0.00 0.00 43 1011.4
20260903162935 94 137 3.0 10.0 0.00 0.00 0.00 43 1011.3
20260903162432 95 108 7.0 13.0 0.00 0.00 0.00 43 1011.2
20260903161927 94 276 5.0 13.0 0.00 0.00 0.00 44 1011.5
20260903161422 93 278 3.0 7.0 0.00 0.00 0.00 45 1011.5
20260903160918 92 267 3.0 8.0 0.00 0.00 0.00 46 1011.5
20260903160417 93 66 4.0 8.0 0.00 0.00 0.00 45 1011.4
20260903155915 92 216 5.0 7.0 0.00 0.00 0.00 46 1011.7
20260903155411 92 303 6.0 8.0 0.00 0.00 0.00 46 1011.6
20260903154906 91 285 5.0 15.0 0.00 0.00 0.00 48 1011.6
20260903154357 91 188 1.0 8.0 0.00 0.00 0.00 48 1011.5
20260903153857 91 104 5.0 14.0 0.00 0.00 0.00 48 1011.5
20260903153352 90 236 4.0 9.0 0.00 0.00 0.00 49 1011.5
20260903152849 89 196 3.0 11.0 0.00 0.00 0.00 50 1011.6
20260903152344 89 248 3.0 9.0 0.00 0.00 0.00 50 1011.7
20260903151840 89 243 7.0 9.0 0.00 0.00 0.00 50 1011.7
20260903151335 89 162 3.0 7.0 0.00 0.00 0.00 50 1011.6
20260903150835 88 221 3.0 11.0 0.00 0.00 0.00 51 1011.5
20260903150329 88 228 6.0 9.0 0.00 0.00 0.00 52 1011.6
20260903145824 87 209 4.0 10.0 0.00 0.00 0.00 52 1011.4
20260903145319 88 191 1.0 9.0 0.00 0.00 0.00 52 1011.5
20260903144819 87 279 4.0 6.0 0.00 0.00 0.00 53 1011.4
20260903144314 87 127 3.0 10.0 0.00 0.00 0.00 53 1011.6
20260903143809 86 197 4.0 14.0 0.00 0.00 0.00 54 1012.0
20260903143306 85 76 3.0 6.0 0.00 0.00 0.00 56 1011.9
20260903142802 84 250 2.0 6.0 0.00 0.00 0.00 57 1011.5
20260903142257 85 12 3.0 7.0 0.00 0.00 0.00 57 1011.9
20260903141753 85 175 3.0 13.0 0.00 0.00 0.00 57 1011.9
20260903141248 84 230 3.0 8.0 0.00 0.00 0.00 58 1011.7
20260903140743 83 256 4.0 8.0 0.00 0.00 0.00 59 1012.0
20260903140238 84 202 3.0 6.0 0.00 0.00 0.00 58 1012.0
20260903135734 83 224 7.0 9.0 0.00 0.00 0.00 59 1011.7
20260903135229 83 177 3.0 9.0 0.00 0.00 0.00 59 1011.7
20260903134727 83 137 4.0 8.0 0.00 0.00 0.00 59 1011.4
20260903134224 82 253 5.0 10.0 0.00 0.00 0.00 60 1011.9
20260903133721 82 188 4.0 7.0 0.00 0.00 0.00 60 1012.0
20260903133218 82 177 3.0 9.0 0.00 0.00 0.00 61 1011.7
20260903132717 81 167 3.0 6.0 0.00 0.00 0.00 62 1011.7
20260903132212 81 266 3.0 7.0 0.00 0.00 0.00 62 1011.9
20260903131707 80 170 3.0 7.0 0.00 0.00 0.00 63 1011.7
20260903131201 80 211 3.0 7.0 0.00 0.00 0.00 63 1011.7
20260903130656 80 218 2.0 9.0 0.00 0.00 0.00 64 1011.9
20260903130150 79 191 2.0 5.0 0.00 0.00 0.00 64 1011.7
20260903125649 79 223 4.0 9.0 0.00 0.00 0.00 65 1011.7
20260903125144 78 218 2.0 3.0 0.00 0.00 0.00 65 1011.7
20260903124643 78 183 2.0 6.0 0.00 0.00 0.00 65 1012.0
20260903124137 78 189 2.0 6.0 0.00 0.00 0.00 65 1011.6
20260903123632 78 138 1.0 5.0 0.00 0.00 0.00 65 1012.0
20260903123131 78 243 5.0 7.0 0.00 0.00 0.00 66 1011.9
20260903122631 78 166 2.0 5.0 0.00 0.00 0.00 66 1011.5
20260903122131 78 220 3.0 7.0 0.00 0.00 0.00 66 1012.0
20260903121630 78 222 4.0 7.0 0.00 0.00 0.00 65 1011.6
20260903121126 78 188 2.0 7.0 0.00 0.00 0.00 65 1011.7
20260903120625 78 177 3.0 5.0 0.00 0.00 0.00 65 1011.5
20260903120119 78 143 1.0 10.0 0.00 0.00 0.00 65 1011.6
20260903115617 78 159 3.0 6.0 0.00 0.00 0.00 64 1011.9
20260903115113 78 159 3.0 6.0 0.00 0.00 0.00 64 1011.9
20260903114608 79 198 0.0 5.0 0.00 0.00 0.00 64 1011.4
20260903114104 79 179 1.0 5.0 0.00 0.00 0.00 64 1011.5
20260903113559 79 252 1.0 6.0 0.00 0.00 0.00 63 1011.6
20260903113055 79 162 1.0 3.0 0.00 0.00 0.00 63 1011.5
20260903112551 79 177 0.0 6.0 0.00 0.00 0.00 63 1011.5
20260903112050 79 183 4.0 9.0 0.00 0.00 0.00 62 1011.4
20260903111550 79 287 3.0 5.0 0.00 0.00 0.00 62 1011.5
20260903111046 79 154 0.0 5.0 0.00 0.00 0.00 62 1011.5
20260903110542 80 95 1.0 5.0 0.00 0.00 0.00 62 1011.7
20260903110036 80 183 2.0 5.0 0.00 0.00 0.00 61 1011.5
20260903105531 80 216 3.0 7.0 0.00 0.00 0.00 61 1011.7
20260903105026 80 232 2.0 6.0 0.00 0.00 0.00 61 1011.9
20260903104526 80 250 4.0 7.0 0.00 0.00 0.00 61 1012.0
20260903104022 80 208 3.0 7.0 0.00 0.00 0.00 60 1011.7
20260903103517 80 150 1.0 6.0 0.00 0.00 0.00 60 1011.9
20260903103014 80 152 6.0 8.0 0.00 0.00 0.00 60 1011.7
20260903102509 80 222 2.0 5.0 0.00 0.00 0.00 60 1011.7
20260903102008 81 259 5.0 6.0 0.00 0.00 0.00 59 1012.0
20260903101502 81 195 1.0 6.0 0.00 0.00 0.00 59 1012.0
20260903100958 81 198 2.0 5.0 0.00 0.00 0.00 59 1011.7
20260903100452 81 156 0.0 5.0 0.00 0.00 0.00 58 1011.9
20260903095949 81 182 4.0 7.0 0.00 0.00 0.00 58 1011.6
20260903095444 81 213 2.0 15.0 0.00 0.00 0.00 58 1011.9
20260903094939 81 208 0.0 5.0 0.00 0.00 0.00 58 1011.7
20260903094439 81 238 3.0 5.0 0.00 0.00 0.00 58 1011.9
20260903093935 81 299 4.0 9.0 0.00 0.00 0.00 58 1011.7
20260903093430 81 174 1.0 2.0 0.00 0.00 0.00 58 1012.0
20260903092925 81 151 3.0 9.0 0.00 0.00 0.00 57 1012.0
20260903092420 81 122 1.0 3.0 0.00 0.00 0.00 57 1012.0
20260903091918 81 261 2.0 9.0 0.00 0.00 0.00 57 1012.1
20260903091417 81 181 2.0 6.0 0.00 0.00 0.00 57 1012.1
20260903090912 81 31 1.0 5.0 0.00 0.00 0.00 57 1012.0
20260903090408 81 159 2.0 5.0 0.00 0.00 0.00 57 1012.0
20260903085906 81 182 1.0 8.0 0.00 0.00 0.00 57 1012.0
20260903085404 81 203 7.0 9.0 0.00 0.00 0.00 57 1012.0
20260903084859 82 184 5.0 8.0 0.00 0.00 0.00 57 1011.6
20260903084357 82 156 6.0 9.0 0.00 0.00 0.00 57 1011.7
20260903083853 82 230 3.0 11.0 0.00 0.00 0.00 56 1011.9
20260903083349 82 216 3.0 7.0 0.00 0.00 0.00 56 1011.7
20260903082847 82 189 3.0 7.0 0.00 0.00 0.00 56 1012.0
20260903082343 82 180 5.0 9.0 0.00 0.00 0.00 56 1011.7
20260903081838 82 177 3.0 5.0 0.00 0.00 0.00 56 1011.5
20260903081333 82 249 3.0 7.0 0.00 0.00 0.00 55 1011.9
20260903080830 82 225 2.0 5.0 0.00 0.00 0.00 55 1011.5
20260903080327 82 164 2.0 9.0 0.00 0.00 0.00 55 1011.6
20260903075826 82 194 4.0 7.0 0.00 0.00 0.00 55 1011.7
20260903075321 82 191 6.0 8.0 0.00 0.00 0.00 54 1011.7
20260903074821 83 246 3.0 7.0 0.00 0.00 0.00 54 1011.6
20260903074315 83 213 1.0 10.0 0.00 0.00 0.00 54 1012.0
20260903073811 83 191 3.0 7.0 0.00 0.00 0.00 54 1012.0
20260903073306 83 188 2.0 8.0 0.00 0.00 0.00 54 1011.7
20260903072802 83 156 2.0 7.0 0.00 0.00 0.00 54 1012.0
20260903072258 83 309 2.0 8.0 0.00 0.00 0.00 54 1011.5
20260903071755 83 190 4.0 7.0 0.00 0.00 0.00 54 1011.9
20260903071250 83 172 2.0 9.0 0.00 0.00 0.00 54 1011.7
20260903070744 83 193 2.0 6.0 0.00 0.00 0.00 54 1011.9
20260903070240 83 216 4.0 6.0 0.00 0.00 0.00 54 1011.7
20260903065735 83 177 1.0 7.0 0.00 0.00 0.00 54 1012.0
20260903065234 83 202 1.0 13.0 0.00 0.00 0.00 54 1011.7
20260903064733 83 148 0.0 6.0 0.00 0.00 0.00 54 1011.9
20260903064228 83 244 3.0 7.0 0.00 0.00 0.00 53 1011.9
20260903063725 83 183 2.0 5.0 0.00 0.00 0.00 53 1011.7
20260903063219 84 199 1.0 8.0 0.00 0.00 0.00 53 1011.7
20260903062716 84 66 1.0 7.0 0.00 0.00 0.00 53 1011.6
20260903062215 84 246 2.0 8.0 0.00 0.00 0.00 53 1011.6
20260903061712 84 200 4.0 7.0 0.00 0.00 0.00 52 1011.7
20260903061210 84 160 1.0 10.0 0.00 0.00 0.00 52 1011.6
20260903060706 84 195 3.0 9.0 0.00 0.00 0.00 52 1011.6
20260903060201 84 238 3.0 7.0 0.00 0.00 0.00 52 1011.6
20260903055658 84 176 4.0 6.0 0.00 0.00 0.00 52 1011.6
20260903055156 84 207 3.0 8.0 0.00 0.00 0.00 51 1011.6
20260903054651 84 171 4.0 6.0 0.00 0.00 0.00 51 1011.5
20260903054147 84 199 1.0 8.0 0.00 0.00 0.00 50 1011.4
20260903053643 84 194 2.0 6.0 0.00 0.00 0.00 50 1011.5
20260903053138 85 175 3.0 8.0 0.00 0.00 0.00 50 1011.5
20260903052634 85 236 3.0 6.0 0.00 0.00 0.00 50 1011.4
20260903052130 85 171 3.0 7.0 0.00 0.00 0.00 49 1011.6
20260903051624 85 164 3.0 6.0 0.00 0.00 0.00 49 1011.5
20260903051120 85 186 5.0 9.0 0.00 0.00 0.00 49 1011.7
20260903050620 85 172 4.0 6.0 0.00 0.00 0.00 48 1011.6
20260903050115 85 67 2.0 5.0 0.00 0.00 0.00 48 1011.6
20260903045614 85 124 1.0 9.0 0.00 0.00 0.00 48 1011.5
20260903045111 85 113 3.0 7.0 0.00 0.00 0.00 47 1011.2
20260903044606 85 152 4.0 8.0 0.00 0.00 0.00 47 1011.4
20260903044102 86 166 2.0 6.0 0.00 0.00 0.00 47 1011.5
20260903043558 86 213 2.0 11.0 0.00 0.00 0.00 47 1011.5
20260903043057 86 95 5.0 8.0 0.00 0.00 0.00 46 1011.4
20260903042552 86 96 1.0 9.0 0.00 0.00 0.00 47 1011.4
20260903042047 86 70 2.0 6.0 0.00 0.00 0.00 46 1011.5
20260903041544 86 203 4.0 9.0 0.00 0.00 0.00 46 1011.5
20260903041039 86 175 5.0 9.0 0.00 0.00 0.00 46 1011.5
20260903040537 86 220 3.0 6.0 0.00 0.00 0.00 45 1011.5
20260903040035 87 117 5.0 7.0 0.00 0.00 0.00 45 1011.3
20260903035529 87 248 3.0 5.0 0.00 0.00 0.00 45 1011.4
20260903035026 87 108 2.0 9.0 0.00 0.00 0.00 45 1011.4
20260903034525 87 127 2.0 5.0 0.00 0.00 0.00 45 1011.4
20260903034020 87 226 6.0 11.0 0.00 0.00 0.00 44 1011.1
20260903033515 87 194 6.0 10.0 0.00 0.00 0.00 44 1011.2
20260903033011 87 179 3.0 14.0 0.00 0.00 0.00 44 1011.3
20260903032506 88 77 4.0 8.0 0.00 0.00 0.00 44 1011.3
20260903032001 87 175 5.0 8.0 0.00 0.00 0.00 44 1011.2
20260903031501 87 250 7.0 9.0 0.00 0.00 0.00 44 1011.2
20260903030956 87 44 2.0 6.0 0.00 0.00 0.00 44 1011.2
20260903030452 87 119 3.0 3.0 0.00 0.00 0.00 44 1011.2
20260903025947 88 100 1.0 7.0 0.00 0.00 0.00 44 1011.0
20260903025443 88 124 4.0 6.0 0.00 0.00 0.00 43 1011.0
20260903024939 88 163 2.0 9.0 0.00 0.00 0.00 43 1011.0
20260903024437 88 196 4.0 7.0 0.00 0.00 0.00 43 1011.1
20260903023932 88 180 2.0 3.0 0.00 0.00 0.00 43 1010.8
20260903023428 88 90 3.0 7.0 0.00 0.00 0.00 43 1010.9
20260903022923 88 143 4.0 8.0 0.00 0.00 0.00 42 1010.8
20260903022422 88 138 2.0 5.0 0.00 0.00 0.00 42 1010.7
20260903021921 88 213 2.0 8.0 0.00 0.00 0.00 42 1010.7
20260903021417 89 108 2.0 3.0 0.00 0.00 0.00 41 1010.4
20260903020911 89 104 2.0 3.0 0.00 0.00 0.00 41 1010.7
20260903020407 89 163 3.0 5.0 0.00 0.00 0.00 40 1010.6
20260903015901 90 196 2.0 5.0 0.00 0.00 0.00 40 1010.5
20260903015357 90 148 4.0 8.0 0.00 0.00 0.00 39 1010.7
20260903014852 90 46 2.0 3.0 0.00 0.00 0.00 39 1010.4
20260903014351 90 108 1.0 5.0 0.00 0.00 0.00 39 1010.2
20260903013846 91 159 2.0 3.0 0.00 0.00 0.00 38 1010.0
20260903013346 91 134 0.0 7.0 0.00 0.00 0.00 38 1009.9
20260903012845 92 142 1.0 8.0 0.00 0.00 0.00 37 1009.8
20260903012339 92 146 4.0 7.0 0.00 0.00 0.00 36 1010.0
20260903011839 92 166 1.0 5.0 0.00 0.00 0.00 36 1009.9
20260903011338 92 150 2.0 3.0 0.00 0.00 0.00 36 1009.9
20260903010834 93 127 1.0 7.0 0.00 0.00 0.00 36 1009.9
20260903010329 93 148 2.0 3.0 0.00 0.00 0.00 36 1010.0
20260903005827 93 130 0.0 5.0 0.00 0.00 0.00 35 1009.8
20260903005323 94 162 0.0 5.0 0.00 0.00 0.00 35 1009.6
20260903004819 95 110 2.0 3.0 0.00 0.00 0.00 34 1009.9
20260903004314 95 197 2.0 3.0 0.00 0.00 0.00 34 1009.9
20260903003809 95 172 4.0 9.0 0.00 0.00 0.00 33 1009.6
20260903003304 96 161 2.0 7.0 0.00 0.00 0.00 33 1009.8
20260903002759 96 143 1.0 3.0 0.00 0.00 0.00 33 1009.9
20260903002258 97 117 4.0 6.0 0.00 0.00 0.00 32 1010.0
20260903001753 97 206 3.0 8.0 0.00 0.00 0.00 32 1009.8
20260903001248 98 136 3.0 8.0 0.00 0.00 0.00 31 1009.8
20260903000743 98 173 2.0 8.0 0.00 0.00 0.00 31 1009.8
20260903000243 98 166 4.0 5.0 0.00 0.00 0.00 30 1009.9
20260902235741 99 207 2.0 7.0 0.00 0.00 0.00 30 1009.8
20260902235237 100 181 2.0 8.0 0.00 0.00 0.00 29 1009.7
20260902234736 100 204 3.0 7.0 0.00 0.00 0.00 29 1009.9
20260902234236 100 105 4.0 10.0 0.00 0.00 0.00 29 1009.9
20260902233736 100 181 3.0 5.0 0.00 0.00 0.00 29 1009.8
20260902233230 101 190 3.0 9.0 0.00 0.00 0.00 28 1009.9
20260902232728 101 103 3.0 5.0 0.00 0.00 0.00 28 1009.8
20260902232223 101 169 2.0 5.0 0.00 0.00 0.00 28 1009.8
20260902231718 101 158 6.0 11.0 0.00 0.00 0.00 28 1009.9
20260902231218 101 204 7.0 10.0 0.00 0.00 0.00 28 1009.8
20260902230713 101 218 5.0 11.0 0.00 0.00 0.00 28 1009.8
20260902230212 101 133 1.0 9.0 0.00 0.00 0.00 28 1010.0
20260902225707 101 206 2.0 6.0 0.00 0.00 0.00 27 1010.3
20260902225207 102 197 8.0 10.0 0.00 0.00 0.00 27 1009.8
20260902224705 102 190 4.0 9.0 0.00 0.00 0.00 27 1009.9